This is the latest recevied weather packets stored in our database for station/object 9W8AKN-L. If no packets are shown the sender has not sent any weather packets the latest 10 day(s).
| Time | Temp. | Humidity | Pressure | Rain* | Wind** | Luminosity | Snow |
|---|---|---|---|---|---|---|---|
| 1777873640 | 29.44° C | 85% | 1008.8 hPa | - | - | - | - |
| 1777872740 | 29.44° C | 85% | 1009 hPa | - | - | - | - |
| 1777871840 | 28.89° C | 85% | 1009.2 hPa | - | - | - | - |
| 1777870940 | 28.89° C | 85% | 1009.7 hPa | - | - | - | - |
| 1777870040 | 28.89° C | 85% | 1010 hPa | - | - | - | - |
| 1777869140 | 28.89° C | 84% | 1010.3 hPa | - | - | - | - |
| 1777868240 | 28.33° C | 85% | 1010.7 hPa | - | - | - | - |
| 1777867340 | 28.33° C | 84% | 1011 hPa | - | - | - | - |
| 1777866440 | 28.33° C | 85% | 1011.1 hPa | - | - | - | - |
| 1777865540 | 27.78° C | 86% | 1011.1 hPa | - | - | - | - |
| 1777864639 | 27.78° C | 86% | 1011.3 hPa | - | - | - | - |
| 1777863739 | 27.22° C | 87% | 1011.7 hPa | - | - | - | - |
| 1777862839 | 27.22° C | 88% | 1011.9 hPa | - | - | - | - |
| 1777861041 | 27.22° C | 91% | 1012.2 hPa | - | - | - | - |
| 1777860141 | 27.22° C | 92% | 1012.2 hPa | - | - | - | - |
| 1777859241 | 27.22° C | 88% | 1012 hPa | - | - | - | - |
| 1777858341 | 27.22° C | 94% | 1011.9 hPa | - | - | - | - |
| 1777857440 | 27.22° C | 94% | 1011.8 hPa | - | - | - | - |
| 1777856540 | 27.22° C | 92% | 1011.7 hPa | - | - | - | - |
| 1777855640 | 27.22° C | 91% | 1011.6 hPa | - | - | - | - |
| 1777854740 | 27.22° C | 97% | 1011.4 hPa | - | - | - | - |
| 1777853840 | 27.22° C | 97% | 1011 hPa | - | - | - | - |
| 1777852940 | 27.22° C | 98% | 1010.6 hPa | - | - | - | - |
| 1777852040 | 27.22° C | 97% | 1010.2 hPa | - | - | - | - |
| 1777851140 | 27.22° C | 95% | 1009.9 hPa | - | - | - | - |
* Rain since midnight (hover to see other rain measurements)
** Current wind speed in m/s (hover to see current wind gust speed)